User: anonymous   Login
Location: Norwich
(52.6280°N, 1.3030°E)
Time: 05:10:19
(UTC+01:00)
Language:

APEX - Orbit

View from above orbital plane
View from above orbital plane
View from above satellite
View from above satellite

Ground track
Ground track

The orbit data is extracted from the following two-line orbital elements,

1 23191U 94046A   15149.00811759  .00010734  00000-0  39654-3 0  9995
2 23191 069.9284 136.5517 0682837 197.2773 195.0923 14.19115272  9296
Epoch (UTC): 29 May 2015 00:11:41
Eccentricity: 0.0682837
inclination: 69.9284°
perigee height: 336 km
apogee height: 1320 km
right ascension of ascending node: 136.5517°
argument of perigee: 197.2773°
revolutions per day: 14.19115272
mean anomaly at epoch: 195.0923°
orbit number at epoch: 929

The dashed part of the orbit path shows where the satellite is in the earth's shadow,  

DLR